FENGYUN 1C DEB, 31332

Orbit data source: Space-Track

FENGYUN 1C DEB, 31332 is space debris in SSO originally from a launch on Mon, 10 May 1999 UTC launched from the Taiyaun Space Center, China (TSC). Fengyun 1C debris stems from the Chinese weather satellite Fengyun-1C, which was intentionally destroyed by a Chinese anti-satellite missile in 2007. This event dramatically increased the amount of space debris, with thousands of trackable fragments posing hazards to satellites and human spaceflight. The Fengyun 1C debris cloud has become a focal point in discussions about space sustainability and the need for international regulations to prevent the creation of new debris.

Loading next visibility...
Identifier
31332, 1999-025BQL
Orbit
SSO
Country
Flag of CNCN / PRC
Related business
Manufacturer
Unknown
Mission
Spacecraft
Bus & Motor
Unknown
Mass
Unknown
Launch date (UTC)
1999-05-10 (27 years ago)
Launch vehicle
Unknown
Launch site
Taiyaun Space Center, China (TSC)
Object type
Payload
Rocket body
Debris
Shape & HBR
Unknown shape, 0.1 m
Radar Cross Section
Small (<0.1 m²)

Expand to show TLE details & history
Last TLE update: 1 day ago

TLE from 1 day ago
0 FENGYUN 1C DEB
1 31332U 99025BQL 26144.29917346  .00001090  00000-0  60823-3 0  9997
2 31332  98.7013 154.9427 0047397 282.3354  93.5962 14.12364373982660
Epoch: 2026-05-24T07:10Z
TLE epoch observation values (Epoch: 2026-05-24T07:10:48.586Z)
Latitude
16.26131°
Longitude
162.79184°
Altitude
855.854 km
Speed
7.425 km/s
True Right ascension
10h 09m 35s
True Declination
16° 10' 13"
Sunlit
Object was in daylight at epoch
Visualization orbit readout
Latitude
Unknown
Longitude
Unknown
Altitude
Unknown
Speed
Unknown
Apparent Right ascension
Unknown
Apparent Declination
Unknown
Sunlit
N/A
Visualization observer readout
Local Sidereal Time
21:42:20
Azimuth
Unknown
Elevation
Unknown
Doppler factor
Unknown
Orbital elements
Apogee altitude
882.712 km
Perigee altitude
814.209 km
Semi-major axis
7,226.597 km
Eccentricity
0.00474
Inclination
98.7013°
RAAN
154.9427°
Arg. of periapsis
282.3354°
True anomaly
94.13805°
Mean anomaly
93.5962°
Eccentric anomaly
93.86715°
Mean motion
3.53299 °/min
Orbital period
101.9 mins
BSTAR
0.00060823
Loading maneuver chart data...
Computing Atmospheric mass density...
Loading historical data...
Loading historical data...
Loading historical data...
Loading historical data...
Loading historical data...
Loading historical data...
Loading historical data...

Documentation

Showing up to 5 results
|